Valdosta Regional, GA

5:44 PM EDT on July 27, 2017 (GMT -0400)
Valdosta Regional

Weather History for KVLD - October, 2011

Change the Weather History Date:

Sunday, October 30, 2011

  Actual Average Record
Temperature  
Mean Temperature 58 °F 64 °F  
Max Temperature 71 °F 77 °F 86 °F (1998)
Min Temperature 44 °F 52 °F 34 °F (2008)
Degree Days  
Heating Degree Days 8 3  
Month to date heating degree days 37  
Since 1 July heating degree days 38  
Cooling Degree Days 0 3  
Month to date cooling degree days 153  
Year to date cooling degree days 2378  
Growing Degree Days 8 (Base 50)    
Moisture  
Dew Point 42 °F    
Average Humidity 59    
Maximum Humidity 82    
Minimum Humidity 42    
Precipitation  
Precipitation 0.00 in 0.09 in 1.71 in (1949)
Month to date precipitation 3.10  
Year to date precipitation 44.77  
Sea Level Pressure  
Sea Level Pressure 30.21 in    
Wind  
Wind Speed 6 mph (ENE)    
Max Wind Speed 14 mph    
Max Gust Speed 23 mph    
Visibility 10 miles    
Events      
T = Trace of Precipitation, MM = Missing Value Source: NWS Daily Summary

Daily Weather History Graph

Daily Weather History Graph

Search for Another Location

Airport or City:

Trip Planner

Search our weather history database for the weather conditions in past years. The results will help you decide how hot, cold, wet, or windy it might be!

Date:

Astronomy

Oct. 30, 2011 Rise Set
Actual Time 7:46 AM EDT 6:46 PM EDT
Civil Twilight 7:21 AM EDT 7:11 PM EDT
Nautical Twilight 6:53 AM EDT 7:40 PM EDT
Astronomical Twilight 6:24 AM EDT 8:08 PM EDT
Moon 11:53 AM EDT (10/30) 10:25 PM EDT (10/30)
Length of Visible Light 11h 50m
Length of Day
11h 00m
Waxing Crescent, 20% of the Moon is Illuminated
Oct 30
Waxing Crescent
Nov 2
First Quarter
Nov 10
Full
Nov 18
Last Quarter
Nov 25
New

Hourly Weather History & Observations

Time (EDT) Temp. Windchill Dew Point Humidity Pressure Visibility Wind Dir Wind Speed Gust Speed Precip Events Conditions
12:53 AM 46.0 °F - 39.9 °F 79% 30.17 in 10.0 mi Calm Calm - N/A   Clear
1:53 AM 45.0 °F - 39.9 °F 82% 30.17 in 10.0 mi Calm Calm - N/A   Clear
2:53 AM 48.9 °F - 39.0 °F 69% 30.17 in 10.0 mi NE 5.8 mph - N/A   Clear
3:53 AM 48.9 °F - 37.0 °F 64% 30.17 in 10.0 mi ENE 6.9 mph - N/A   Clear
4:53 AM 46.0 °F 43.9 °F 36.0 °F 68% 30.18 in 10.0 mi NE 4.6 mph - N/A   Clear
5:53 AM 44.1 °F 40.8 °F 36.0 °F 73% 30.19 in 10.0 mi NE 5.8 mph - N/A   Clear
6:53 AM 44.6 °F 40.2 °F 33.8 °F 66% 30.19 in 10.0 mi NE 8.1 mph - N/A   Clear
7:53 AM 46.4 °F 41.9 °F 33.8 °F 62% 30.20 in 10.0 mi ENE 9.2 mph - N/A   Clear
8:53 AM 50.0 °F - 32.0 °F 50% 30.24 in 10.0 mi ENE 11.5 mph 19.6 mph N/A   Clear
9:53 AM 55.0 °F - 35.1 °F 47% 30.26 in 10.0 mi ENE 11.5 mph 19.6 mph N/A   Clear
10:53 AM 60.1 °F - 37.9 °F 44% 30.27 in 10.0 mi ENE 13.8 mph 19.6 mph N/A   Clear
11:53 AM 63.0 °F - 41.0 °F 45% 30.26 in 10.0 mi NE 13.8 mph 23.0 mph N/A   Clear
12:53 PM 66.0 °F - 43.0 °F 43% 30.24 in 10.0 mi ENE 10.4 mph 20.7 mph N/A   Clear
1:53 PM 68.0 °F - 44.1 °F 42% 30.22 in 10.0 mi East 11.5 mph 19.6 mph N/A   Clear
2:53 PM 70.0 °F - 46.0 °F 42% 30.19 in 10.0 mi NE 10.4 mph 19.6 mph N/A   Clear
3:53 PM 71.1 °F - 46.9 °F 42% 30.18 in 10.0 mi ENE 11.5 mph 18.4 mph N/A   Partly Cloudy
4:53 PM 70.0 °F - 48.0 °F 46% 30.18 in 10.0 mi Variable 5.8 mph 17.3 mph N/A   Mostly Cloudy
5:53 PM 66.9 °F - 48.0 °F 51% 30.19 in 10.0 mi NE 6.9 mph - N/A   Mostly Cloudy
6:53 PM 64.4 °F - 48.2 °F 56% 30.17 in 10.0 mi ENE 4.6 mph - N/A   Mostly Cloudy
7:53 PM 62.1 °F - 48.9 °F 62% 30.21 in 10.0 mi ENE 5.8 mph - N/A   Mostly Cloudy
8:53 PM 61.0 °F - 48.9 °F 64% 30.22 in 10.0 mi ENE 9.2 mph - N/A   Mostly Cloudy
9:53 PM 60.1 °F - 48.9 °F 67% 30.24 in 10.0 mi ENE 6.9 mph - N/A   Overcast
10:53 PM 57.9 °F - 48.0 °F 70% 30.23 in 10.0 mi ENE 9.2 mph 18.4 mph N/A   Partly Cloudy
11:53 PM 57.0 °F - 48.0 °F 72% 30.23 in 10.0 mi NE 6.9 mph - N/A   Partly Cloudy